780  
ASUS43 KMPX 240710  
RWRMN  
WEATHER ROUNDUP FOR MINNESOTA  
NATIONAL WEATHER SERVICE TWIN CITIES/CHANHASSEN MN  
200 AM CDT SUN MAR 24 2019  
 
NOTE: "FAIR" INDICATES FEW OR NO CLOUDS BELOW 12,000 FEET WITH NO  
SIGNIFICANT WEATHER AND/OR S TO VISIBILITY
. N/A MEANS  
CURRENT SKY AND/OR WEATHER CONDITIONS ARE NOT AVAILABLE.  
 
MNZ060>063-068>070-240800-  
TWIN CITIES METRO  
 
CITY SKY/WX TMP DP RH WIND PRES REMARKS
 
TWIN CITIES CLOUDY 40 33 76 E5 30.11F  
ST PAUL FAIR 36 32 85 CALM 30.12F  
CRYSTAL FAIR 35 29 78 CALM 30.10S  
BLAINE FAIR 36 30 80 CALM 30.10F  
LAKEVILLE DRIZZLE 37 37 100 CALM 30.10F  
EDEN PRAIRIE MOCLDY 40 33 76 CALM 30.09F  
SOUTH ST PAUL FAIR 36 32 85 CALM 30.11F  
LAKE ELMO N/A 34 32 93 CALM 30.12S  

 
MNZ001>005-007-008-013>017-022>024-027-028-240800-  
NORTHWEST MINNESOTA  
 
CITY SKY/WX TMP DP RH WIND PRES REMARKS
 
BEMIDJI FAIR 32 29 88 CALM 30.09R  
HALLOCK CLOUDY 34 30 86 N14 30.16R WCI 24  
ROSEAU FAIR 28 23 80 NE13 30.15R WCI 18  
WARROAD FAIR 30 27 86 N13 30.16R WCI 20  
THIEF RVR FALL MOCLDY 31 30 96 N7 30.12R WCI 24  
CROOKSTON FAIR 28 27 93 NE3 30.12R FOG  
FOSSTON FAIR 27 25 93 CALM 30.11R FOG  
DETROIT LAKES MOCLDY 32 30 93 CALM 30.09S  
MOORHEAD FAIR 27 27 100 CALM 30.11R FOG  
PARK RAPIDS FAIR 33 30 88 N5 30.07R WCI 29  
MAHNOMEN FAIR 31 29 93 CALM 30.09S  

 
MNZ006-009>011-018-025>026-240800-  
NORTH CENTRAL MINNESOTA  
 
CITY SKY/WX TMP DP RH WIND PRES REMARKS
 
BAUDETTE FAIR 32 27 81 NE10 30.12R WCI 24  
FLAG ISLAND FAIR 28 19 69 NE16 30.18R WCI 17  
INTL FALLS FAIR 33 28 81 N13G20 30.11R WCI 24  
WASKISH FAIR 28 28 100 W6 30.10R WCI 22  
BIG FORK FAIR 34 28 80 CALM 30.12R  
LONGVILLE FAIR 32 30 93 CALM 30.09R  
GRAND RAPIDS FAIR 37 30 75 W6 30.09R  
CRANE LAKE FAIR 34 30 86 N3 30.09R  
ORR FAIR 34 28 80 NW6 30.05R WCI 29  
COOK FAIR 36 28 75 NW3 30.06S  
WALKER FAIR 36 31 81 CALM 30.09R  

 
MNZ012-019>021-037-240800-  
NORTHEAST MINNESOTA  
 
CITY SKY/WX TMP DP RH WIND PRES REMARKS
 
DULUTH FAIR 38 29 70 NW13 30.05R  
ELY FAIR 36 27 69 CALM 30.04R  
HIBBING FAIR 32 27 81 W6 30.06R WCI 26  
EVELETH FAIR 28 25 86 CALM 30.06S  
DULUTH HARBOR FAIR 36 28 75 MISG 30.09R  
TWO HARBORS FAIR 39 28 65 SW7 30.03R  
SILVER BAY FAIR 41 28 60 SW3 29.92S  
GRAND MARAIS N/A 32 27 81 W3 30.02R  
G MARAIS ARPRT N/A 39 23 52 CALM 29.99R  

 
MNZ029>031-032-039>041-046>048-054>057-064-240800-  
WEST CENTRAL MINNESOTA  
 
CITY SKY/WX TMP DP RH WIND PRES REMARKS
 
FERGUS FALLS FAIR 36 34 93 CALM 30.08S  
WHEATON CLOUDY 34 32 93 CALM 30.11S FOG  
MORRIS CLOUDY 34 34 100 SE5 30.04S FOG WCI 30  
ALEXANDRIA FAIR 35 31 85 CALM 30.09S  
ELBOW LAKE FAIR 36 35 99 E5 30.09S  
WADENA MOCLDY 28 28 100 CALM 30.08R FOG  
GLENWOOD FAIR 34 34 100 CALM 30.09S FOG  
APPLETON CLOUDY 36 34 93 CALM 30.09S  
BENSON CLOUDY 37 36 93 CALM 30.10S  
ORTONVILLE CLOUDY 36 34 93 CALM 30.08S FOG  
MADISON CLOUDY 39 39 100 S3 30.08S  
WILLMAR CLOUDY 37 36 93 CALM 30.12S  

 
MNZ033>034-036-042>043-049>051-058-059-240800-  
CENTRAL MINNESOTA  
 
CITY SKY/WX TMP DP RH WIND PRES REMARKS
 
ST CLOUD FAIR 30 28 92 CALM 30.09S  
SAUK CENTRE FAIR 32 31 99 CALM 30.09F  
PAYNESVILLE FAIR 30 30 100 CALM 30.10S  
AITKIN MOCLDY 34 30 86 W3 30.07R  
PINE RIVER CLOUDY 30 27 86 CALM 30.12R  
BRAINERD FAIR 33 29 85 CALM 30.08S  
STAPLES FAIR 25 25 100 CALM 30.09R FOG  
LONG PRAIRIE FAIR 30 30 100 SW5 30.09F FOG WCI 25  
LITCHFIELD CLOUDY 37 36 93 CALM 30.10S  
BUFFALO FAIR 32 30 93 MISG 30.11F  
MAPLE LAKE FAIR 32 31 97 CALM 30.10F FOG  

 
MNZ037-044-045-052-053-240800-  
EAST CENTRAL MINNESOTA  
 
CITY SKY/WX TMP DP RH WIND PRES REMARKS
 
PRINCETON FAIR 28 27 93 CALM 30.10F FOG  
MORA FAIR 28 25 86 CALM 30.11S  
CAMBRIDGE FAIR 28 18 64 CALM 30.11S  
RUSH CITY FAIR 30 25 82 CALM 30.11R  
MOOSE LAKE FAIR 28 25 86 CALM 30.06S  
HINCKLEY FAIR 28 27 93 CALM 30.10R  
CLOQUET FAIR 34 27 75 W6 30.07R WCI 29  
MCGREGOR FAIR 32 28 86 NW5 30.09R WCI 27  

 
MNZ071>073-080-081-089-090-097-098-240800-  
SOUTHWEST MINNESOTA  
 
CITY SKY/WX TMP DP RH WIND PRES REMARKS
 
MONTEVIDEO CLOUDY 39 37 93 CALM 30.09S  
GRANITE FALLS LGT RAIN 40 38 93 S6 30.11S  
CANBY LGT RAIN 40 37 91 S3 30.09F  
MARSHALL LGT RAIN 38 37 97 CALM 30.09F FOG  
REDWOOD FALLS LGT RAIN 40 38 93 SE6 30.09F  
OLIVIA DRIZZLE 39 36 87 SW7 30.09F  
PIPESTONE CLOUDY 39 37 93 E5 30.05F  
WINDOM CLOUDY 37 36 93 NE6 30.06F  
WORTHINGTON CLOUDY 39 37 92 NE7 30.06F  
JACKSON CLOUDY 41 36 81 E7 30.07F  
TRACY DRIZZLE 39 39 99 CALM 30.08F  

 
MNZ065>067-074>077-082>085-091>093-240800-  
SOUTH CENTRAL MINNESOTA  
 
CITY SKY/WX TMP DP RH WIND PRES REMARKS
 
MANKATO LGT RAIN 41 38 89 E5 30.10F  
NEW ULM CLOUDY 41 37 87 NE3 30.09F  
ST JAMES CLOUDY 39 37 93 NE5 30.08S  
FAIRMONT CLOUDY 41 37 86 NE6 30.08F  
GLENCOE LGT RAIN 41 38 87 CALM 30.10S  
OWATONNA MOCLDY 39 36 87 CALM 30.10F  
WASECA MOCLDY 39 34 81 E6 30.11S  
ALBERT LEA CLOUDY 43 37 81 SE3 30.09F  

 
MNZ078>079-086>088-094>096-240800-  
SOUTHEAST MINNESOTA  
 
CITY SKY/WX TMP DP RH WIND PRES REMARKS
 
ROCHESTER CLOUDY 39 33 79 S10 30.11F  
RED WING FAIR 32 28 86 CALM 30.11F  
STANTON CLOUDY 34 32 92 CALM 30.10F  
DODGE CENTER CLOUDY 37 34 87 CALM 30.10F  
WINONA CLOUDY 36 32 87 CALM 30.13F  
AUSTIN DRIZZLE 41 32 70 E3 30.10F  
PRESTON DRIZZLE 40 34 77 S7 30.12S  

 
ABBREVIATIONS USED IN REMARKS  
TC - TEMPERATURES IN CELSIUS  
WCI - WIND CHILL INDEX  
HX - HEAT INDEX  
VSB - VISIBILITY  

 
 
 
CLICK HERE TO GO TO PREVIOUS BULLETINS.

The Nexlab MN Page Main Text Page